Location: Coupvray
(48.8929°N, 2.7967°E)
Time: 13:17:19
(UTC+00:00)

Altair 2 - Pass Details

Date: 17 January 2021
Orbit: 837 x 949 km, 90.2° (Epoch: 28 February)

Event Time Altitude Azimuth Distance (km) Brightness Sun altitude
Rises 06:00:24 0° 5° (N) 3,426 10.8 -15.2°
Reaches altitude 10° 06:02:50 10° 9° (N) 2,497 10.1 -14.8°
Maximum altitude 06:08:20 56° 88° (E) 1,035 8.5 -13.9°
Drops below altitude 10° 06:13:56 10° 166° (SSE) 2,547 10.6 -13.1°
Sets 06:16:26 0° 170° (S) 3,499 11.3 -12.7°
